New River MCAS, NC

12:27 AM EDT on August 17, 2017 (GMT -0400)
New River Marine Corps Air Station

Weather History for KNCA - August, 2012

Change the Weather History Date:

Saturday, August 25, 2012

  Actual Average Record
Temperature  
Mean Temperature 70 °F -  
Max Temperature 77 °F 84 °F 91 °F (2002)
Min Temperature 66 °F 68 °F 60 °F (1997)
Cooling Degree Days 6    
Growing Degree Days 20 (Base 50)    
Moisture  
Dew Point 67 °F    
Average Humidity 88    
Maximum Humidity 97    
Minimum Humidity 71    
Precipitation  
Precipitation 0.09 in - - ()
Sea Level Pressure  
Sea Level Pressure 30.07 in    
Wind  
Wind Speed 5 mph (WNW)    
Max Wind Speed 9 mph    
Max Gust Speed -    
Visibility 8 miles    
Events      
Averages and records for this station are not official NWS values.
T = Trace of Precipitation, MM = Missing Value Source: NWS Daily Summary

Daily Weather History Graph

Daily Weather History Graph

Search for Another Location

Airport or City:

Trip Planner

Search our weather history database for the weather conditions in past years. The results will help you decide how hot, cold, wet, or windy it might be!

Date:

Astronomy

Aug. 25, 2012 Rise Set
Actual Time 6:37 AM EDT 7:44 PM EDT
Civil Twilight 6:11 AM EDT 8:10 PM EDT
Nautical Twilight 5:40 AM EDT 8:41 PM EDT
Astronomical Twilight 5:08 AM EDT 9:13 PM EDT
Moon 3:08 PM EDT (8/25) 12:27 AM EDT (8/25)
Length of Visible Light 13h 58m
Length of Day
13h 06m
Waxing Gibbous, 62% of the Moon is Illuminated
Aug 25
Waxing Gibbous
Aug 31
Full
Sep 8
Last Quarter
Sep 15
New
Sep 22
First Quarter

Hourly Weather History & Observations

Time (EDT) Temp. Dew Point Humidity Pressure Visibility Wind Dir Wind Speed Gust Speed Precip Events Conditions
12:10 AM 69.8 °F 68.0 °F 94% 30.05 in 10.0 mi NNW 4.6 mph - N/A   Overcast
12:56 AM 70.0 °F 68.0 °F 93% 30.05 in 10.0 mi NNW 4.6 mph - N/A   Overcast
1:56 AM 70.0 °F 68.0 °F 93% 30.04 in 9.0 mi NW 6.9 mph - N/A   Overcast
2:10 AM 69.8 °F 68.0 °F 94% 30.03 in 8.0 mi NNW 6.9 mph - N/A   Mostly Cloudy
2:19 AM 69.8 °F 68.0 °F 94% 30.03 in 9.0 mi NNW 5.8 mph - N/A   Mostly Cloudy
2:44 AM 69.8 °F 68.0 °F 94% 30.02 in 2.5 mi NW 8.1 mph - 0.09 in   Overcast
2:51 AM 69.8 °F 68.0 °F 94% 30.03 in 3.0 mi West 3.5 mph - 0.09 in   Overcast
2:56 AM 69.1 °F 68.0 °F 96% 30.04 in 6.0 mi Calm Calm - 0.09 in   Overcast
3:33 AM 69.8 °F 68.0 °F 94% 30.02 in 7.0 mi NW 4.6 mph - N/A   Overcast
3:56 AM 69.1 °F 68.0 °F 96% 30.02 in 5.0 mi NW 3.5 mph - N/A   Overcast
4:56 AM 69.1 °F 68.0 °F 96% 30.02 in 5.0 mi West 8.1 mph - N/A   Overcast
5:56 AM 69.1 °F 68.0 °F 96% 30.03 in 3.0 mi West 9.2 mph - N/A   Overcast
6:56 AM 69.1 °F 66.9 °F 93% 30.05 in 5.0 mi NW 9.2 mph - N/A   Overcast
7:16 AM 69.8 °F 66.2 °F 88% 30.05 in 5.0 mi NW 8.1 mph - N/A   Overcast
7:56 AM 69.1 °F 66.0 °F 90% 30.07 in 10.0 mi NW 6.9 mph - N/A   Overcast
8:18 AM 69.8 °F 64.4 °F 83% 30.06 in 10.0 mi NNW 6.9 mph - N/A   Mostly Cloudy
8:35 AM 69.8 °F 66.2 °F 88% 30.07 in 10.0 mi NNW 4.6 mph - N/A   Mostly Cloudy
8:56 AM 69.1 °F 64.9 °F 87% 30.08 in 10.0 mi NW 6.9 mph - N/A   Overcast
9:31 AM 68.0 °F 66.2 °F 94% 30.08 in 10.0 mi West 6.9 mph - N/A   Overcast
9:56 AM 69.1 °F 64.9 °F 87% 30.09 in 10.0 mi West 8.1 mph - N/A   Overcast
10:08 AM 69.8 °F 64.4 °F 83% 30.09 in 10.0 mi WNW 9.2 mph - N/A   Overcast
10:56 AM 70.0 °F 64.9 °F 84% 30.11 in 10.0 mi West 5.8 mph - N/A   Overcast
11:05 AM 69.8 °F 64.4 °F 83% 30.10 in 10.0 mi WNW 5.8 mph - N/A   Overcast
11:56 AM 72.0 °F 66.0 °F 81% 30.10 in 10.0 mi WSW 5.8 mph - N/A   Overcast
12:56 PM 72.0 °F 64.9 °F 78% 30.10 in 10.0 mi WSW 4.6 mph - N/A   Overcast
1:46 PM 73.4 °F 66.2 °F 78% 30.10 in 10.0 mi West 4.6 mph - N/A   Overcast
1:56 PM 73.0 °F 64.9 °F 76% 30.11 in 10.0 mi WSW 4.6 mph - N/A   Overcast
2:56 PM 73.9 °F 66.9 °F 79% 30.09 in 10.0 mi West 9.2 mph - N/A   Overcast
3:56 PM 73.9 °F 66.0 °F 76% 30.10 in 10.0 mi West 5.8 mph - N/A   Overcast
4:56 PM 75.0 °F 66.9 °F 76% 30.09 in 10.0 mi WSW 3.5 mph - N/A   Mostly Cloudy
5:56 PM 75.9 °F 66.9 °F 74% 30.10 in 10.0 mi WSW 3.5 mph - N/A   Mostly Cloudy
6:56 PM 75.9 °F 66.0 °F 71% 30.10 in 10.0 mi Calm Calm - N/A   Clear
7:56 PM 72.0 °F 68.0 °F 87% 30.12 in 10.0 mi WSW 3.5 mph - N/A   Clear
8:56 PM 69.1 °F 66.9 °F 93% 30.12 in 8.0 mi Calm Calm - N/A   Clear
9:56 PM 69.1 °F 66.9 °F 93% 30.13 in 8.0 mi Calm Calm - N/A   Clear
10:56 PM 66.9 °F 66.0 °F 97% 30.13 in 9.0 mi Calm Calm - N/A   Clear
11:56 PM 66.0 °F 64.9 °F 96% 30.14 in 4.0 mi Calm Calm - N/A   Clear